Вернуться в каталог

SYNCOM 1

АктивенСвязьMEO
NORAD 553·PAYLOAD·🇺🇸 United States

Запущен Feb 14, 1963 с Cape Canaveral Space Force Station

Loading…

Ближайшие Пролёты (ближайшие 24 часа)

TLE

СвежийSource: Space-Track

Эпоха: Sep 6, 2026, 07:22 UTC

1 00553U 63004A   26249.30758203 -.00000046  00000-0  00000-0 0  9998
2 00553  26.5401 271.0329 0808557 204.1764 151.8044  1.16483635 37004

Отслеживайте SYNCOM 1 в реальном времени с AllMySat

Download on the App Store